Time,TemperatureF,DewpointF,PressureIn,WindDirection,WindDirectionDegrees,WindSpeedMPH,WindSpeedGustMPH,Humidity,HourlyPrecipIn,Conditions,Clouds,dailyrainin,SolarRadiationWatts/m^2,SoftwareType,DateUTC
2013-08-09 00:01:00,72.0,70.0,-100.00,NW,316,1.0,3.0,94,0.00,,,0.14,0.000000,,2013-08-09 04:01:00,
2013-08-09 00:33:00,71.0,70.0,-100.00,WNW,291,2.0,5.0,98,0.00,,,0.14,0.000000,,2013-08-09 04:33:00,
2013-08-09 00:43:00,71.0,70.0,-100.00,WNW,291,2.0,5.0,98,0.00,,,0.14,0.000000,,2013-08-09 04:43:00,
2013-08-09 00:53:00,71.0,70.0,-100.00,WNW,291,2.0,5.0,98,0.00,,,0.14,0.000000,,2013-08-09 04:53:00,
2013-08-09 01:02:00,71.0,70.0,-100.00,WNW,291,2.0,5.0,98,0.00,,,0.14,0.000000,,2013-08-09 05:02:00,
2013-08-09 01:33:00,71.0,70.0,-100.00,WNW,300,2.0,3.0,98,0.00,,,0.14,0.000000,,2013-08-09 05:33:00,
2013-08-09 01:43:00,71.0,70.0,-100.00,WNW,300,2.0,3.0,98,0.00,,,0.14,0.000000,,2013-08-09 05:43:00,
2013-08-09 01:52:00,71.0,70.0,-100.00,WNW,300,2.0,3.0,98,0.00,,,0.14,0.000000,,2013-08-09 05:52:00,
2013-08-09 02:01:00,71.0,70.0,-100.00,WNW,300,2.0,3.0,98,0.00,,,0.14,0.000000,,2013-08-09 06:01:00,
2013-08-09 02:32:00,70.0,70.0,-100.00,NW,304,3.0,4.0,99,0.00,,,0.14,0.000000,,2013-08-09 06:32:00,
2013-08-09 02:43:00,70.0,70.0,-100.00,NW,304,3.0,4.0,99,0.00,,,0.14,0.000000,,2013-08-09 06:43:00,
2013-08-09 02:52:00,70.0,70.0,-100.00,NW,304,3.0,4.0,99,0.00,,,0.14,0.000000,,2013-08-09 06:52:00,
2013-08-09 03:01:00,70.0,70.0,-100.00,NW,304,3.0,4.0,99,0.00,,,0.14,0.000000,,2013-08-09 07:01:00,
2013-08-09 03:33:00,70.0,70.0,-100.00,WNW,300,3.0,4.0,100,0.00,,,0.14,0.000000,,2013-08-09 07:33:00,
2013-08-09 03:43:00,70.0,70.0,-100.00,WNW,300,3.0,4.0,100,0.00,,,0.14,0.000000,,2013-08-09 07:43:00,
2013-08-09 03:53:00,70.0,70.0,-100.00,WNW,300,3.0,4.0,100,0.00,,,0.14,0.000000,,2013-08-09 07:53:00,
2013-08-09 04:02:00,70.0,70.0,-100.00,WNW,300,3.0,4.0,100,0.00,,,0.14,0.000000,,2013-08-09 08:02:00,
2013-08-09 04:32:00,71.0,70.0,-100.00,WNW,299,1.0,4.0,97,0.00,,,0.14,0.000000,,2013-08-09 08:32:00,
2013-08-09 04:43:00,71.0,70.0,-100.00,WNW,299,1.0,4.0,97,0.00,,,0.14,0.000000,,2013-08-09 08:43:00,
2013-08-09 04:53:00,71.0,70.0,-100.00,WNW,299,1.0,4.0,97,0.00,,,0.14,0.000000,,2013-08-09 08:53:00,
2013-08-09 05:02:00,71.0,70.0,-100.00,WNW,299,1.0,4.0,97,0.00,,,0.14,0.000000,,2013-08-09 09:02:00,
2013-08-09 05:43:00,71.0,69.0,-100.00,WNW,299,2.0,3.0,95,0.00,,,0.14,0.000000,,2013-08-09 09:43:00,
2013-08-09 05:52:00,71.0,69.0,-100.00,WNW,299,2.0,3.0,95,0.00,,,0.14,0.000000,,2013-08-09 09:52:00,
2013-08-09 06:01:00,71.0,69.0,-100.00,WNW,299,2.0,3.0,95,0.00,,,0.14,0.000000,,2013-08-09 10:01:00,
2013-08-09 06:43:00,71.0,70.0,-100.00,WNW,301,1.0,3.0,97,0.00,,,0.14,0.000000,,2013-08-09 10:43:00,
2013-08-09 06:53:00,71.0,70.0,-100.00,WNW,301,1.0,3.0,97,0.00,,,0.14,0.000000,,2013-08-09 10:53:00,
2013-08-09 07:02:00,71.0,70.0,-100.00,WNW,301,1.0,3.0,97,0.00,,,0.14,0.000000,,2013-08-09 11:02:00,
2013-08-09 07:33:00,70.0,69.0,-100.00,WNW,294,2.0,4.0,98,0.00,,,0.14,1.000000,,2013-08-09 11:33:00,
2013-08-09 07:43:00,70.0,69.0,-100.00,WNW,294,2.0,4.0,98,0.00,,,0.14,1.000000,,2013-08-09 11:43:00,
2013-08-09 07:53:00,70.0,69.0,-100.00,WNW,294,2.0,4.0,98,0.00,,,0.14,1.000000,,2013-08-09 11:53:00,
2013-08-09 08:02:00,70.0,69.0,-100.00,WNW,294,2.0,4.0,98,0.00,,,0.14,1.000000,,2013-08-09 12:02:00,
2013-08-09 08:43:00,71.0,71.0,-100.00,West,281,1.0,3.0,100,0.00,,,0.14,17.000000,,2013-08-09 12:43:00,
2013-08-09 08:52:00,71.0,71.0,-100.00,West,281,1.0,3.0,100,0.00,,,0.14,17.000000,,2013-08-09 12:52:00,
2013-08-09 09:01:00,71.0,71.0,-100.00,West,281,1.0,3.0,100,0.00,,,0.14,17.000000,,2013-08-09 13:01:00,
2013-08-09 09:32:00,74.0,74.0,-100.00,West,279,0.0,0.0,99,0.00,,,0.14,88.000000,,2013-08-09 13:32:00,
2013-08-09 09:43:00,74.0,74.0,-100.00,West,279,0.0,0.0,99,0.00,,,0.14,88.000000,,2013-08-09 13:43:00,
2013-08-09 09:52:00,74.0,74.0,-100.00,West,279,0.0,0.0,99,0.00,,,0.14,88.000000,,2013-08-09 13:52:00,
2013-08-09 10:02:00,74.0,74.0,-100.00,West,279,0.0,0.0,99,0.00,,,0.14,88.000000,,2013-08-09 14:02:00,
2013-08-09 10:33:00,82.0,76.0,-100.00,NNW,337,1.0,5.0,82,0.00,,,0.14,375.000000,,2013-08-09 14:33:00,
2013-08-09 10:43:00,82.0,76.0,-100.00,NNW,337,1.0,5.0,82,0.00,,,0.14,375.000000,,2013-08-09 14:43:00,
2013-08-09 10:53:00,82.0,76.0,-100.00,NNW,337,1.0,5.0,82,0.00,,,0.14,375.000000,,2013-08-09 14:53:00,
2013-08-09 11:02:00,82.0,76.0,-100.00,NNW,337,1.0,5.0,82,0.00,,,0.14,375.000000,,2013-08-09 15:02:00,
2013-08-09 11:33:00,83.0,75.0,-100.00,West,277,1.0,4.0,77,0.00,,,0.14,451.000000,,2013-08-09 15:33:00,
2013-08-09 11:44:00,83.0,75.0,-100.00,West,277,1.0,4.0,77,0.00,,,0.14,451.000000,,2013-08-09 15:44:00,
2013-08-09 11:53:00,83.0,75.0,-100.00,West,277,1.0,4.0,77,0.00,,,0.14,451.000000,,2013-08-09 15:53:00,
2013-08-09 12:02:00,83.0,75.0,-100.00,West,277,1.0,4.0,77,0.00,,,0.14,451.000000,,2013-08-09 16:02:00,
2013-08-09 12:32:00,81.0,78.0,-100.00,ESE,112,1.0,3.0,91,0.01,,,0.15,326.000000,,2013-08-09 16:32:00,
2013-08-09 12:43:00,81.0,78.0,-100.00,ESE,112,1.0,3.0,91,0.01,,,0.15,326.000000,,2013-08-09 16:43:00,
2013-08-09 12:53:00,81.0,78.0,-100.00,ESE,112,1.0,3.0,91,0.01,,,0.15,326.000000,,2013-08-09 16:53:00,
2013-08-09 13:02:00,81.0,78.0,-100.00,ESE,112,1.0,3.0,91,0.01,,,0.15,326.000000,,2013-08-09 17:02:00,
2013-08-09 13:33:00,76.0,73.0,-100.00,North,2,1.0,4.0,90,0.05,,,0.06,270.000000,,2013-08-09 17:33:00,
2013-08-09 13:43:00,76.0,73.0,-100.00,North,2,1.0,4.0,90,0.05,,,0.06,270.000000,,2013-08-09 17:43:00,
2013-08-09 13:52:00,76.0,73.0,-100.00,North,2,1.0,4.0,90,0.05,,,0.06,270.000000,,2013-08-09 17:52:00,
2013-08-09 14:01:00,76.0,73.0,-100.00,North,2,1.0,4.0,90,0.05,,,0.06,270.000000,,2013-08-09 18:01:00,
2013-08-09 14:32:00,78.0,73.0,-100.00,WSW,249,2.0,4.0,86,0.00,,,0.06,501.000000,,2013-08-09 18:32:00,
2013-08-09 14:43:00,78.0,73.0,-100.00,WSW,249,2.0,4.0,86,0.00,,,0.06,501.000000,,2013-08-09 18:43:00,
2013-08-09 14:53:00,78.0,73.0,-100.00,WSW,249,2.0,4.0,86,0.00,,,0.06,501.000000,,2013-08-09 18:53:00,
2013-08-09 15:02:00,78.0,73.0,-100.00,WSW,249,2.0,4.0,86,0.00,,,0.06,501.000000,,2013-08-09 19:02:00,
2013-08-09 15:43:00,72.0,70.0,-100.00,WNW,288,2.0,5.0,93,0.03,,,0.09,116.000000,,2013-08-09 19:43:00,
2013-08-09 15:52:00,72.0,70.0,-100.00,WNW,288,2.0,5.0,93,0.03,,,0.09,116.000000,,2013-08-09 19:52:00,
2013-08-09 16:02:00,72.0,70.0,-100.00,WNW,288,2.0,5.0,93,0.03,,,0.09,116.000000,,2013-08-09 20:02:00,
2013-08-09 16:52:00,81.0,77.0,-100.00,WNW,289,2.0,7.0,88,0.01,,,0.10,577.000000,,2013-08-09 20:52:00,
2013-08-09 17:01:00,81.0,77.0,-100.00,WNW,289,2.0,7.0,88,0.01,,,0.10,577.000000,,2013-08-09 21:01:00,
2013-08-09 17:43:00,82.0,76.0,-100.00,West,272,2.0,6.0,82,0.00,,,0.10,570.000000,,2013-08-09 21:43:00,
2013-08-09 17:52:00,82.0,76.0,-100.00,West,272,2.0,6.0,82,0.00,,,0.10,570.000000,,2013-08-09 21:52:00,
2013-08-09 18:02:00,82.0,76.0,-100.00,West,272,2.0,6.0,82,0.00,,,0.10,570.000000,,2013-08-09 22:02:00,
2013-08-09 18:32:00,80.0,72.0,-100.00,NW,308,1.0,3.0,77,0.00,,,0.10,339.000000,,2013-08-09 22:32:00,
2013-08-09 18:43:00,80.0,72.0,-100.00,NW,308,1.0,3.0,77,0.00,,,0.10,339.000000,,2013-08-09 22:43:00,
2013-08-09 18:52:00,80.0,72.0,-100.00,NW,308,1.0,3.0,77,0.00,,,0.10,339.000000,,2013-08-09 22:52:00,
2013-08-09 19:02:00,80.0,72.0,-100.00,NW,308,1.0,3.0,77,0.00,,,0.10,339.000000,,2013-08-09 23:02:00,
2013-08-09 19:43:00,80.0,74.0,-100.00,WSW,258,1.0,4.0,81,0.00,,,0.10,124.000000,,2013-08-09 23:43:00,
2013-08-09 19:52:00,80.0,74.0,-100.00,WSW,258,1.0,4.0,81,0.00,,,0.10,124.000000,,2013-08-09 23:52:00,
2013-08-09 20:01:00,80.0,74.0,-100.00,WSW,258,1.0,4.0,81,0.00,,,0.10,124.000000,,2013-08-10 00:01:00,
2013-08-09 20:33:00,78.0,74.0,-100.00,NNW,339,0.0,2.0,87,0.00,,,0.10,60.000000,,2013-08-10 00:33:00,
2013-08-09 20:43:00,78.0,74.0,-100.00,NNW,339,0.0,2.0,87,0.00,,,0.10,60.000000,,2013-08-10 00:43:00,
2013-08-09 20:53:00,78.0,74.0,-100.00,NNW,339,0.0,2.0,87,0.00,,,0.10,60.000000,,2013-08-10 00:53:00,
2013-08-09 21:01:00,78.0,74.0,-100.00,NNW,339,0.0,2.0,87,0.00,,,0.10,60.000000,,2013-08-10 01:01:00,
2013-08-09 21:32:00,75.0,73.0,-100.00,NW,305,1.0,2.0,95,0.00,,,0.10,3.000000,,2013-08-10 01:32:00,
2013-08-09 21:43:00,75.0,73.0,-100.00,NW,305,1.0,2.0,95,0.00,,,0.10,3.000000,,2013-08-10 01:43:00,
2013-08-09 21:52:00,75.0,73.0,-100.00,NW,305,1.0,2.0,95,0.00,,,0.10,3.000000,,2013-08-10 01:52:00,
2013-08-09 22:03:00,75.0,73.0,-100.00,NW,305,1.0,2.0,95,0.00,,,0.10,3.000000,,2013-08-10 02:03:00,
2013-08-09 22:32:00,75.0,74.0,-100.00,NW,312,0.0,2.0,96,0.00,,,0.10,0.000000,,2013-08-10 02:32:00,
2013-08-09 22:42:00,75.0,74.0,-100.00,NW,312,0.0,2.0,96,0.00,,,0.10,0.000000,,2013-08-10 02:42:00,
2013-08-09 22:52:00,75.0,74.0,-100.00,NW,312,0.0,2.0,96,0.00,,,0.10,0.000000,,2013-08-10 02:52:00,
2013-08-09 23:01:00,75.0,74.0,-100.00,NW,312,0.0,2.0,96,0.00,,,0.10,0.000000,,2013-08-10 03:01:00,
2013-08-09 23:32:00,75.0,74.0,-100.00,NW,309,2.0,4.0,96,0.00,,,0.10,0.000000,,2013-08-10 03:32:00,
2013-08-09 23:42:00,75.0,74.0,-100.00,NW,309,2.0,4.0,96,0.00,,,0.10,0.000000,,2013-08-10 03:42:00,
2013-08-09 23:52:00,75.0,74.0,-100.00,NW,309,2.0,4.0,96,0.00,,,0.10,0.000000,,2013-08-10 03:52:00,